DW6667 Weather Reports


Display with metric or nautical units.
time (UTC)temp
F
wind
direction
speed
MPH
gust
MPH
rain 1hr
in
rain 24hr
in
rain mn
in
humidity
%
barometer
mb
20230129232025 6 0.0 0.0 0.00 0.00 0.00 52 1025.6
20230129231028 7 0.0 0.0 0.00 0.00 0.00 49 1025.7
20230129230031 10 0.0 0.0 0.00 0.00 0.00 45 1025.7
20230129225015 9 0.0 0.0 0.00 0.00 0.00 44 1025.7
20230129224018 9 0.0 0.0 0.00 0.00 0.00 44 1026.0
20230129223121 11 0.0 0.0 0.00 0.00 0.00 40 1026.0
20230129222043 13 0.0 0.0 0.00 0.00 0.00 38 1026.0
20230129221025 11 0.0 0.0 0.00 0.00 0.00 41 1026.0
20230129220028 11 0.0 0.0 0.00 0.00 0.00 40 1026.2
20230129215024 11 0.0 0.0 0.00 0.00 0.00 41 1026.2
20230129214020 10 0.0 0.0 0.00 0.00 0.00 44 1026.2
20230129213017 11 0.0 0.0 0.00 0.00 0.00 42 1026.3
20230129212020 6 0.0 0.0 0.00 0.00 0.00 50 1026.4
20230129211042 8 0.0 0.0 0.00 0.00 0.00 46 1026.5
20230129210024 5 0.0 0.0 0.00 0.00 0.00 53 1026.8
20230129205027 5 0.0 0.0 0.00 0.00 0.00 51 1026.8
20230129204029 6 0.0 0.0 0.00 0.00 0.00 54 1026.8
20230129203052 5 0.0 0.0 0.00 0.00 0.00 53 1027.1
20230129202017 5 0.0 0.0 0.00 0.00 0.00 51 1027.3
20230129201039 1 0.0 0.0 0.00 0.00 0.00 57 1027.6
20230129200021 3 0.0 0.0 0.00 0.00 0.00 56 1027.7
20230129195024 1 0.0 0.0 0.00 0.00 0.00 58 1027.7
20230129194027 6 0.0 0.0 0.00 0.00 0.00 52 1028.0
20230129193029 7 0.0 0.0 0.00 0.00 0.00 51 1028.0
20230129192053 7 0.0 0.0 0.00 0.00 0.00 52 1028.3
20230129191017 8 0.0 0.0 0.00 0.00 0.00 51 1028.3
20230129190020 7 0.0 0.0 0.00 0.00 0.00 53 1028.5
20230129185022 7 0.0 0.0 0.00 0.00 0.00 51 1028.5
20230129184018 9 0.0 0.0 0.00 0.00 0.00 48 1028.6
20230129183015 10 0.0 0.0 0.00 0.00 0.00 51 1028.8
20230129182030 5 0.0 0.0 0.00 0.00 0.00 57 1029.1
20230129181032 3 0.0 0.0 0.00 0.00 0.00 61 1029.1
20230129180017 2 0.0 0.0 0.00 0.00 0.00 61 1029.1
20230129175020 5 0.0 0.0 0.00 0.00 0.00 58 1029.1
20230129174042 6 0.0 0.0 0.00 0.00 0.00 60 1029.1
20230129173024 1 0.0 0.0 0.00 0.00 0.00 62 1029.1
20230129172027 2 0.0 0.0 0.00 0.00 0.00 64 1028.9
20230129171110 6 0.0 0.0 0.00 0.00 0.00 68 1028.9
20230129170032 0 0.0 0.0 0.00 0.00 0.00 79 1028.9
20230129165017 -4 0.0 0.0 0.00 0.00 0.00 83 1028.9
20230129164019 -5 0.0 0.0 0.00 0.00 0.00 82 1028.9
20230129163022 -8 0.0 0.0 0.00 0.00 0.00 83 1028.8
20230129162024 -10 0.0 0.0 0.00 0.00 0.00 85 1028.8
20230129161027 -12 0.0 0.0 0.00 0.00 0.00 85 1028.7
20230129160043 -13 0.0 0.0 0.00 0.00 0.00 86 1028.6
20230129155020 -13 0.0 0.0 0.00 0.00 0.00 86 1028.6
20230129154016 -15 0.0 0.0 0.00 0.00 0.00 86 1028.3
20230129153019 -15 0.0 0.0 0.00 0.00 0.00 87 1028.1
20230129152021 -17 0.0 0.0 0.00 0.00 0.00 87 1027.9
20230129151024 -17 0.0 0.0 0.00 0.00 0.00 87 1027.8
20230129150027 -17 0.0 0.0 0.00 0.00 0.00 87 1027.7
20230129145109 -17 0.0 0.0 0.00 0.00 0.00 87 1027.7
20230129144032 -17 0.0 0.0 0.00 0.00 0.00 88 1027.4
20230129143016 -16 0.0 0.0 0.00 0.00 0.00 88 1027.3
20230129142018 -16 0.0 0.0 0.00 0.00 0.00 88 1027.3
20230129141021 -16 0.0 0.0 0.00 0.00 0.00 88 1027.2
20230129140044 -15 0.0 0.0 0.00 0.00 0.00 88 1027.2
20230129135046 -15 0.0 0.0 0.00 0.00 0.00 88 1027.2
20230129134029 -14 0.0 0.0 0.00 0.00 0.00 88 1027.2
20230129133031 -13 0.0 0.0 0.00 0.00 0.00 88 1027.1
20230129132016 -13 0.0 0.0 0.00 0.00 0.00 88 1027.0
20230129131018 -12 0.0 0.0 0.00 0.00 0.00 89 1026.8
20230129130022 -12 0.0 0.0 0.00 0.00 0.00 88 1026.8
20230129125018 -12 0.0 0.0 0.00 0.00 0.00 88 1026.8
20230129124027 -12 0.0 0.0 0.00 0.00 0.00 88 1026.8
20230129123029 -12 0.0 0.0 0.00 0.00 0.00 88 1026.8
20230129122031 -12 0.0 0.0 0.00 0.00 0.00 88 1026.8
20230129121016 -12 0.0 0.0 0.00 0.00 0.00 89 1026.6
20230129120018 -11 0.0 0.0 0.00 0.00 0.00 89 1026.6
20230129115021 -12 0.0 0.0 0.00 0.00 0.00 89 1026.6
20230129114024 -12 0.0 0.0 0.00 0.00 0.00 88 1026.8
20230129113026 -12 0.0 0.0 0.00 0.00 0.00 88 1026.5
20230129112029 -12 0.0 0.0 0.00 0.00 0.00 88 1026.5
20230129111032 -13 0.0 0.0 0.00 0.00 0.00 88 1026.4
20230129110036 -13 0.0 0.0 0.00 0.00 0.00 88 1026.4
20230129105019 -13 0.0 0.0 0.00 0.00 0.00 88 1026.4
20230129104021 -13 0.0 0.0 0.00 0.00 0.00 88 1026.2
20230129103024 -13 0.0 0.0 0.00 0.00 0.00 88 1026.0
20230129102026 -13 0.0 0.0 0.00 0.00 0.00 89 1026.0
20230129101023 -13 0.0 0.0 0.00 0.00 0.00 89 1026.0
20230129100020 -14 0.0 0.0 0.00 0.00 0.00 88 1026.0
20230129095016 -14 0.0 0.0 0.00 0.00 0.00 89 1026.0
20230129094019 -14 0.0 0.0 0.00 0.00 0.00 88 1026.0
20230129093022 -15 0.0 0.0 0.00 0.00 0.00 88 1025.8
20230129092024 -14 0.0 0.0 0.00 0.00 0.00 88 1025.7
20230129091026 -14 0.0 0.0 0.00 0.00 0.00 88 1025.7
20230129090029 -14 0.0 0.0 0.00 0.00 0.00 88 1025.7
20230129085153 -14 0.0 0.0 0.00 0.00 0.00 88 1025.7
20230129084016 -14 0.0 0.0 0.00 0.00 0.00 89 1025.7
20230129083019 -14 0.0 0.0 0.00 0.00 0.00 89 1025.7
20230129082021 -14 0.0 0.0 0.00 0.00 0.00 89 1025.7
20230129081024 -14 0.0 0.0 0.00 0.00 0.00 90 1025.6
20230129080027 -15 0.0 0.0 0.00 0.00 0.00 89 1025.7
20230129075029 -15 0.0 0.0 0.00 0.00 0.00 90 1025.7
20230129074031 -15 0.0 0.0 0.00 0.00 0.00 89 1025.7
20230129073016 -14 0.0 0.0 0.00 0.00 0.00 90 1025.7
20230129072019 -14 0.0 0.0 0.00 0.00 0.00 89 1025.7
20230129071022 -13 0.0 0.0 0.00 0.00 0.00 89 1025.7
20230129070018 -13 0.0 0.0 0.00 0.00 0.00 90 1025.7
20230129065026 -12 0.0 0.0 0.00 0.00 0.00 90 1025.7
20230129064029 -11 0.0 0.0 0.00 0.00 0.00 90 1025.7
20230129063032 -10 0.0 0.0 0.00 0.00 0.00 90 1025.8
20230129062016 -10 0.0 0.0 0.00 0.00 0.00 90 1025.7
20230129061039 -9 0.0 0.0 0.00 0.00 0.00 90 1025.7
20230129060021 -8 0.0 0.0 0.00 0.00 0.00 91 1025.7
20230129055024 -8 0.0 0.0 0.00 0.00 0.00 91 1025.7
20230129054026 -7 0.0 0.0 0.00 0.00 0.00 91 1025.6
20230129053029 -7 0.0 0.0 0.00 0.00 0.00 91 1025.7
20230129052031 -6 0.0 0.0 0.00 0.00 0.00 90 1025.7
20230129051016 -6 0.0 0.0 0.00 0.00 0.00 90 1025.8
20230129050019 -6 0.0 0.0 0.00 0.00 0.00 90 1025.8
20230129045021 -6 0.0 0.0 0.00 0.00 0.00 88 1025.8
20230129044024 -6 0.0 0.0 0.00 0.00 0.00 88 1025.7
20230129043026 -6 0.0 0.0 0.00 0.00 0.00 88 1025.8
20230129042022 -6 0.0 0.0 0.00 0.00 0.00 88 1025.7
20230129041019 -6 0.0 0.0 0.00 0.00 0.00 88 1025.7
20230129040016 -5 0.0 0.0 0.00 0.00 0.00 87 1025.8
20230129035019 -5 0.0 0.0 0.00 0.00 0.00 87 1025.8
20230129034021 -5 0.0 0.0 0.00 0.00 0.00 86 1025.8
20230129033024 -5 0.0 0.0 0.00 0.00 0.00 86 1025.8
20230129032046 -5 0.0 0.0 0.00 0.00 0.00 85 1025.8
20230129031029 -4 0.0 0.0 0.00 0.00 0.00 84 1025.8
20230129030052 -4 0.0 0.0 0.00 0.00 0.00 84 1025.7
20230129025016 -3 0.0 0.0 0.00 0.00 0.00 84 1025.7
20230129024019 -3 0.0 0.0 0.00 0.00 0.00 85 1025.6
20230129023021 -3 0.0 0.0 0.00 0.00 0.00 85 1025.6
20230129022024 -2 0.0 0.0 0.00 0.00 0.00 85 1025.6
20230129021026 -2 0.0 0.0 0.00 0.00 0.00 85 1025.6
20230129020109 -2 0.0 0.0 0.00 0.00 0.00 84 1025.6
20230129015031 -2 0.0 0.0 0.00 0.00 0.00 84 1025.6
20230129014016 -2 0.0 0.0 0.00 0.00 0.00 83 1025.4
20230129013018 -2 0.0 0.0 0.00 0.00 0.00 83 1025.3
20230129012021 -2 0.0 0.0 0.00 0.00 0.00 83 1025.1
20230129011017 -1 0.0 0.0 0.00 0.00 0.00 83 1025.0
20230129010026 -1 0.0 0.0 0.00 0.00 0.00 83 1025.0
20230129005028 -1 0.0 0.0 0.00 0.00 0.00 83 1025.0
20230129004031 -1 0.0 0.0 0.00 0.00 0.00 83 1024.9
20230129003015 0 0.0 0.0 0.00 0.00 0.00 83 1024.7
20230129002018 0 0.0 0.0 0.00 0.00 0.00 82 1024.7
20230129001021 0 0.0 0.0 0.00 0.00 0.00 81 1024.5
20230129000023 0 0.0 0.0 0.00 0.00 0.00 81 1024.3
20230128235026 0 0.0 0.0 0.00 0.00 0.00 79 1024.3
20230128234049 0 0.0 0.0 0.00 0.00 0.00 79 1024.1
20230128233031 1 0.0 0.0 0.00 0.00 0.00 79 1024.1